User: anonymous   Login
Location: Unspecified
(0.0000°N, 0.0000°E)
Time: 10:19:37
(UTC+01:00)
Language:

YAOGAN 3 - Orbit

View from above orbital plane
View from above orbital plane
View from above satellite
View from above satellite

Ground track
Ground track

The orbit data is extracted from the following two-line orbital elements,

1 32289U 07055A   14327.85185837  .00001177  00000-0  15448-3 0  8005
2 32289 097.9488 318.6424 0001681 102.8675 257.2731 14.82146750380178
Epoch (UTC): 23 November 2014 20:26:40
Eccentricity: 0.0001681
inclination: 97.9488°
perigee height: 621 km
apogee height: 624 km
right ascension of ascending node: 318.6424°
argument of perigee: 102.8675°
revolutions per day: 14.82146750
mean anomaly at epoch: 257.2731°
orbit number at epoch: 38017

The dashed part of the orbit path shows where the satellite is in the earth's shadow,  

DLR